[[{"header":{"parameterUnit":"m.s-1","parameterCategory":1,"la1":30.2991,"la2":30.254,"lo1":-89.0895,"lo2":-89.0444,"dy":0.0017,"dx":0.0017,"nx":28,"ny":28,"refTime":"2024-08-02T03:00:00:Z","depth":0,"parameterNumber":2,"parameterNumberName":"U-component_of_WINDS"},"data":[0,0,0,0,0,0,0,0,0,0,0,0,0,0,0,0,0,0,0,0,0,0,0,0,0,0,0,0,0,0,0,0,0,0,0,0,0,0,0,0,0,0,0,0,0,0,0,0,0,0,0,0,0,0,0,0,0,0,2.9382,2.9382,0,2.9379,2.9379,2.9379,2.9341,2.934,2.9339,2.9338,2.9336,2.9336,2.9337,0,0,0,0,0,0,0,0,0,0,0,0,0,2.9356,2.9356,2.9382,2.9382,2.9382,2.9379,2.9379,2.9379,2.9341,2.934,2.9338,2.9337,2.9335,2.9336,2.9337,0,0,0,0,0,0,0,0,0,0,0,0,0,2.9361,2.9357,2.9382,2.9362,2.9361,2.9379,2.9379,2.9379,2.9341,2.9339,2.9338,2.9337,2.9335,2.9336,2.9338,2.9375,0,0,2.9341,2.9342,0,0,0,0,0,0,0,0,2.9361,2.9362,2.9365,2.9364,2.9362,2.9359,2.9369,2.9378,2.9341,2.9348,2.9338,2.9336,2.9345,2.9345,2.9348,2.9375,2.9375,2.9342,2.9342,2.9343,2.9343,0,0,0,0,0,0,0,2.9361,2.9362,2.9381,2.9365,2.9363,2.9354,2.9353,2.937,2.9355,2.9348,2.9345,2.9345,2.9343,2.9346,2.9347,2.9374,2.9342,2.9343,2.9343,2.9344,2.9432,2.9434,0,0,0,0,0,0,2.9363,2.9362,2.9381,2.9381,2.9358,2.9356,2.9355,2.9361,2.9354,2.9352,2.9346,2.9343,2.9345,2.9346,2.9347,2.939,2.9343,2.9344,2.9345,2.9431,2.9433,2.9434,0,0,0,0,0,0,2.9363,2.9365,2.9381,2.9371,2.9372,2.9358,2.9365,2.9362,2.9365,2.9353,2.935,2.9352,2.9344,2.9345,2.9368,2.9389,2.9345,2.9346,2.9429,2.9431,2.9433,2.9476,0,0,0,0,0,0,2.9362,2.9365,2.9378,2.9371,2.9373,2.9402,2.9366,2.9363,2.9367,2.9363,2.9358,2.9356,2.9343,2.9366,2.9369,2.939,2.9347,2.9427,2.943,2.9433,2.9472,2.9479,2.9485,0,0,0,0,0,2.9361,2.9391,2.9379,2.9382,2.9389,2.9403,2.9404,2.9388,2.9369,2.9383,2.9375,2.9356,2.9387,2.9369,2.9372,2.9393,2.9425,2.9429,2.9432,2.9469,2.9478,2.9485,0,0,0,0,0,0,2.94,2.9389,2.9377,2.9404,2.9405,2.9396,2.9413,2.9397,2.9403,2.9399,2.9379,2.9379,2.9404,2.9402,2.9382,2.9429,2.9403,2.9407,2.943,2.9438,2.9444,2.9443,2.9348,0,0,0,0,0,2.9412,2.9424,2.9414,2.9439,2.944,2.9427,2.9432,2.942,2.942,2.942,2.9414,2.9415,2.9425,2.9431,2.944,2.9472,2.9471,2.9489,2.9495,2.9501,2.9504,2.9521,2.9529,2.9446,2.9446,2.9446,0,0,2.9437,2.9432,2.9441,2.9447,2.9446,2.9459,2.9427,2.9442,2.9451,2.9422,2.9443,2.9439,2.9439,2.9467,2.9479,2.9465,2.9527,2.9505,2.9509,2.951,2.9525,2.9533,2.954,2.9448,2.9448,2.9448,0,0,2.9488,2.9486,2.9507,2.9507,2.9505,2.9496,2.9502,2.9496,2.9492,2.9513,2.9491,2.9503,2.952,2.9521,2.9523,2.9577,2.9559,2.958,2.9613,2.963,2.9636,2.9642,2.966,2.9667,2.9584,2.9584,2.9584,0,2.9518,2.9536,2.952,2.9536,2.9539,2.9514,2.9536,2.9536,2.9538,2.9542,2.9527,2.9548,2.9546,2.9574,2.9587,2.959,2.9595,2.958,2.9637,2.9642,2.9647,2.9664,2.9671,2.9587,2.9587,2.9586,2.9586,0,2.9573,2.9587,2.9604,2.9606,2.9612,2.9631,2.9618,2.9626,2.9614,2.9607,2.9629,2.9626,2.9633,2.9639,2.9628,2.9666,2.9657,2.964,2.9612,2.9658,2.9673,2.968,2.959,2.9589,2.9589,2.9588,0,0,2.9646,2.9641,2.9647,2.9648,2.9646,2.9656,2.9675,2.9682,2.9689,2.9692,2.9706,2.9722,2.9707,2.971,2.9698,2.9713,2.9755,2.9694,2.9694,2.9704,2.9796,2.9808,2.9816,2.9744,2.9746,2.9747,2.9796,0,2.9695,2.9725,2.9711,2.9743,2.9755,2.9732,2.9748,2.9749,2.9744,2.9753,2.9747,2.9759,2.9737,2.9739,2.9753,2.9747,2.9773,2.9744,2.9757,2.9758,2.9756,2.9824,2.9836,2.9882,2.9802,2.9803,2.9804,0,2.9754,2.9759,2.9792,2.9789,2.9793,2.9808,2.9814,2.9823,2.9824,2.9819,2.9824,2.9809,2.9828,2.9802,2.9827,2.9807,2.9812,2.9811,2.9812,2.9811,2.9782,2.9823,2.9897,2.9903,2.9813,2.9812,2.9812,0,2.9803,2.9818,2.984,2.9842,2.9839,2.9849,2.9848,2.9848,2.9853,2.9859,2.9862,2.9871,2.9875,2.9881,2.987,2.9852,2.9896,2.9869,2.9892,2.9892,2.99,2.9899,2.9974,2.9907,2.9907,2.9906,2.9906,0,2.9857,2.9877,2.9862,2.9875,2.9898,2.9883,2.9906,2.9903,2.9903,2.9916,2.9898,2.991,2.9894,2.9905,2.9897,2.9918,2.992,2.9917,2.9914,2.9917,2.9918,2.9919,2.9915,2.9908,2.9908,2.9908,2.9907,0,2.9913,2.9904,2.9926,2.9922,2.9921,2.9938,2.9935,2.9947,2.9941,2.9957,2.996,2.9951,2.9963,2.9952,2.9964,2.9958,2.9986,2.998,2.9986,2.9983,3.0006,3.0003,3.0082,3.0091,3.002,3.0021,3.0021,0,2.9948,2.9963,2.9961,2.9968,2.9968,2.998,2.9986,2.9973,2.9979,2.9982,2.9994,3.0005,3.0012,3.0032,3.0027,3.0036,3.0028,3.0055,3.0029,3.0032,3.0027,3.0025,3.0026,3.006,3.0061,3.0061,3.0062,0,3.0009,3.0004,3.0013,3.002,3.0028,3.0033,3.0037,3.0044,3.0031,3.004,3.0051,3.0057,3.007,3.008,3.0087,3.0087,3.0072,3.0071,3.0076,3.0079,3.0081,3.0079,2.9998,3.0068,3.0068,3.0067,3.0067,3.0067,3.0054,3.0067,3.0068,3.0078,3.008,3.0085,3.0096,3.0092,3.0102,3.011,3.0103,3.0117,3.0119,3.0127,3.0128,3.014,3.0128,3.0136,3.0138,3.014,3.0142,3.0081,3.0141,3.0141,3.0141,3.0141,3.0141,0,3.0113,3.0113,3.0123,3.013,3.0138,3.0125,3.0129,3.0137,3.015,3.0153,3.0161,3.0175,3.0185,3.0181,3.0191,3.02,3.0194,3.0203,3.0201,3.0201,3.0153,3.0146,3.0208,3.0208,3.0208,3.0208,3.0208,3.0208,3.0145,3.0166,3.0161,3.0183,3.0183,3.0197,3.02,3.0204,3.0206,3.0223,3.0232,3.0229,3.0229,3.0239,3.0248,3.0246,3.025,3.0261,3.0257,3.0212,3.0205,3.0198,3.0192,3.0263,3.0263,3.0305,3.0305,3.0305]},{"header":{"parameterUnit":"m.s-1","parameterCategory":1,"la1":30.2991,"la2":30.254,"lo1":-89.0895,"lo2":-89.0444,"dy":0.0017,"dx":0.0017,"nx":28,"ny":28,"refTime":"2024-08-02T03:00:00:Z","depth":0,"parameterNumber":3,"parameterNumberName":"V-component_of_WINDS"},"data":[0,0,0,0,0,0,0,0,0,0,0,0,0,0,0,0,0,0,0,0,0,0,0,0,0,0,0,0,0,0,0,0,0,0,0,0,0,0,0,0,0,0,0,0,0,0,0,0,0,0,0,0,0,0,0,0,0,0,4.1317,4.1318,0,4.148,4.1482,4.1484,4.1538,4.1537,4.1536,4.1536,4.1693,4.1698,4.1703,0,0,0,0,0,0,0,0,0,0,0,0,0,4.1038,4.1043,4.1316,4.1319,4.1321,4.148,4.1482,4.1484,4.1538,4.1537,4.1536,4.1535,4.1692,4.1697,4.1703,0,0,0,0,0,0,0,0,0,0,0,0,0,4.1176,4.1045,4.1316,4.1367,4.1373,4.1479,4.1482,4.1485,4.1538,4.1537,4.1536,4.1535,4.169,4.1697,4.1704,4.1769,0,0,4.1726,4.1729,0,0,0,0,0,0,0,0,4.1168,4.1186,4.1357,4.1363,4.1371,4.1488,4.1442,4.158,4.1538,4.1475,4.1536,4.1534,4.1625,4.1638,4.167,4.1776,4.1783,4.1727,4.1731,4.1734,4.1736,0,0,0,0,0,0,0,4.1158,4.1179,4.1381,4.136,4.1368,4.1377,4.1396,4.1468,4.1553,4.148,4.1485,4.1504,4.1628,4.1663,4.1674,4.1786,4.1727,4.1733,4.1738,4.174,4.1948,4.1949,0,0,0,0,0,0,4.1142,4.1171,4.1376,4.1386,4.1265,4.1383,4.1404,4.1451,4.1553,4.1568,4.1505,4.1506,4.1651,4.1666,4.168,4.176,4.1734,4.1741,4.1745,4.1947,4.1948,4.1949,0,0,0,0,0,0,4.1136,4.116,4.1369,4.128,4.1307,4.1389,4.1441,4.1455,4.149,4.1571,4.1586,4.1525,4.1651,4.167,4.1746,4.1766,4.1744,4.1751,4.1945,4.1947,4.1949,4.1922,0,0,0,0,0,0,4.1128,4.1157,4.1186,4.128,4.1312,4.1436,4.1443,4.1459,4.1503,4.1506,4.1594,4.1608,4.1652,4.1735,4.1753,4.1776,4.1757,4.1944,4.1946,4.1948,4.1922,4.1923,4.1924,0,0,0,0,0,4.1118,4.1171,4.1187,4.1212,4.135,4.1438,4.1455,4.1507,4.1505,4.1532,4.1583,4.1605,4.1761,4.1742,4.1763,4.1789,4.1943,4.1945,4.1948,4.1921,4.1923,4.1924,0,0,0,0,0,0,4.1075,4.1184,4.1204,4.129,4.1354,4.1447,4.1483,4.1508,4.1572,4.1572,4.163,4.165,4.172,4.1762,4.1739,4.1854,4.1852,4.1859,4.1825,4.1827,4.1828,4.1816,4.1763,0,0,0,0,0,4.1076,4.1141,4.1232,4.1299,4.1331,4.1401,4.1441,4.1475,4.1543,4.157,4.1627,4.1689,4.1751,4.1792,4.1854,4.1928,4.1945,4.1955,4.1956,4.1956,4.1961,4.1999,4.2003,4.1958,4.1958,4.1958,0,0,4.1078,4.1146,4.1183,4.1292,4.1346,4.1408,4.1424,4.149,4.1535,4.1579,4.1655,4.1698,4.177,4.1845,4.188,4.1882,4.1977,4.196,4.1959,4.1964,4.2002,4.2006,4.201,4.196,4.1959,4.1959,0,0,4.1113,4.1173,4.1234,4.1287,4.1369,4.1415,4.1429,4.1518,4.1549,4.1627,4.1659,4.1712,4.182,4.1869,4.1908,4.1957,4.1978,4.1976,4.1981,4.2018,4.2021,4.2025,4.204,4.2045,4.198,4.198,4.198,0,4.1105,4.1204,4.1261,4.1326,4.137,4.1414,4.1474,4.1522,4.1618,4.1646,4.1647,4.1781,4.1833,4.1917,4.1929,4.196,4.1975,4.1966,4.2017,4.2021,4.2025,4.2039,4.2045,4.1979,4.1979,4.198,4.198,0,4.1187,4.1255,4.1294,4.1388,4.1437,4.1499,4.1561,4.1603,4.1631,4.1675,4.1751,4.1814,4.1889,4.1911,4.194,4.1998,4.1996,4.2006,4.2005,4.2027,4.2042,4.2048,4.1978,4.1978,4.1979,4.1979,0,0,4.1203,4.1327,4.1339,4.1381,4.1473,4.1524,4.1585,4.166,4.1693,4.1757,4.1807,4.1895,4.1904,4.1948,4.1981,4.2013,4.2044,4.2019,4.2021,4.202,4.2109,4.2101,4.2107,4.2059,4.206,4.2061,4.2102,0,4.1248,4.1363,4.1414,4.1504,4.1564,4.1605,4.1657,4.1716,4.1758,4.1812,4.1857,4.1918,4.1926,4.1953,4.1986,4.2034,4.2063,4.2031,4.2102,4.2104,4.2082,4.2115,4.2107,4.2144,4.2109,4.211,4.2111,0,4.1318,4.1384,4.148,4.1562,4.1589,4.1636,4.1707,4.1759,4.1825,4.1853,4.1901,4.1932,4.1992,4.1987,4.2069,4.2046,4.2077,4.2104,4.2107,4.2115,4.2108,4.2122,4.2157,4.2161,4.2121,4.212,4.2119,0,4.1316,4.1428,4.15,4.1535,4.1632,4.1663,4.1705,4.177,4.1811,4.1871,4.1897,4.1963,4.1998,4.2046,4.2093,4.2085,4.2168,4.2168,4.219,4.2188,4.2206,4.2204,4.2244,4.2227,4.2227,4.2227,4.2227,0,4.1361,4.1417,4.15,4.1544,4.1607,4.1663,4.1722,4.1766,4.1823,4.1872,4.191,4.1955,4.2015,4.2065,4.2102,4.2162,4.2177,4.2199,4.2207,4.2195,4.2192,4.2216,4.2214,4.2228,4.2228,4.2228,4.2227,0,4.1369,4.1428,4.1508,4.1594,4.1616,4.1658,4.173,4.1771,4.1814,4.1876,4.1893,4.1959,4.2021,4.2072,4.2152,4.2176,4.2238,4.2249,4.2217,4.2221,4.224,4.2236,4.2296,4.2305,4.2283,4.2283,4.2283,0,4.1394,4.1439,4.1529,4.1567,4.1608,4.1668,4.171,4.1765,4.1806,4.1883,4.1914,4.1979,4.2034,4.2129,4.2182,4.2242,4.2254,4.227,4.2263,4.2248,4.2252,4.2248,4.2251,4.227,4.227,4.227,4.227,0,4.143,4.1456,4.1517,4.1587,4.1637,4.1694,4.1752,4.1779,4.1843,4.1887,4.1952,4.1994,4.2077,4.2139,4.2205,4.2242,4.2266,4.2272,4.228,4.2268,4.2247,4.2256,4.2217,4.2271,4.2271,4.2271,4.227,4.227,4.1446,4.1487,4.1556,4.1622,4.1671,4.1723,4.1766,4.1814,4.1871,4.1944,4.1972,4.2037,4.2097,4.2189,4.2226,4.2275,4.2278,4.229,4.2293,4.2295,4.2292,4.2239,4.2287,4.2287,4.2287,4.2288,4.2288,0,4.1482,4.1529,4.1589,4.1669,4.1719,4.174,4.1803,4.1843,4.1901,4.1957,4.2011,4.2083,4.2143,4.22,4.2261,4.2289,4.2301,4.2303,4.2302,4.2309,4.2287,4.2273,4.2293,4.2293,4.2293,4.2293,4.2293,4.2293,4.1507,4.1576,4.161,4.1701,4.1747,4.1814,4.1848,4.1895,4.194,4.202,4.2071,4.2109,4.2163,4.2229,4.2283,4.2298,4.2318,4.2317,4.2334,4.2312,4.2311,4.231,4.2297,4.2321,4.2322,4.2352,4.2353,4.2353]}]]